Time,TemperatureF,DewpointF,PressureIn,WindDirection,WindDirectionDegrees,WindSpeedMPH,WindSpeedGustMPH,Humidity,HourlyPrecipIn,Conditions,Clouds,dailyrainin,SoftwareType,DateUTC
2013-06-15 00:11:00,68.6,62.0,29.98,SE,136,0.0,1.0,80,0.00,,,0.00,weatherlink.com 1.10,2013-06-15 05:11:00,
2013-06-15 00:26:00,67.9,63.0,29.99,SE,136,0.0,3.0,83,0.00,,,0.00,weatherlink.com 1.10,2013-06-15 05:26:00,
2013-06-15 00:41:00,67.7,62.0,30.00,SE,136,0.0,0.0,83,0.00,,,0.00,weatherlink.com 1.10,2013-06-15 05:41:00,
2013-06-15 00:56:00,66.8,62.0,30.00,SE,136,0.0,0.0,85,0.00,,,0.00,weatherlink.com 1.10,2013-06-15 05:56:00,
2013-06-15 01:11:00,66.8,62.0,30.00,SE,136,0.0,2.0,85,0.00,,,0.00,weatherlink.com 1.10,2013-06-15 06:11:00,
2013-06-15 01:26:00,67.0,62.0,30.01,SE,136,0.0,0.0,85,0.00,,,0.00,weatherlink.com 1.10,2013-06-15 06:26:00,
2013-06-15 01:41:00,67.0,62.0,30.00,SE,136,0.0,1.0,83,0.00,,,0.00,weatherlink.com 1.10,2013-06-15 06:41:00,
2013-06-15 01:56:00,68.2,62.0,29.99,SE,142,1.0,3.0,80,0.00,,,0.00,weatherlink.com 1.10,2013-06-15 06:56:00,
2013-06-15 02:11:00,69.6,62.0,29.98,SSE,163,0.0,4.0,77,0.00,,,0.00,weatherlink.com 1.10,2013-06-15 07:11:00,
2013-06-15 02:26:00,69.6,62.0,29.99,SSE,154,1.0,4.0,78,0.00,,,0.00,weatherlink.com 1.10,2013-06-15 07:26:00,
2013-06-15 02:41:00,69.0,62.0,29.99,SSE,153,2.0,3.0,79,0.00,,,0.00,weatherlink.com 1.10,2013-06-15 07:41:00,
2013-06-15 02:56:00,69.0,62.0,29.98,SSE,163,4.0,6.0,79,0.00,,,0.00,weatherlink.com 1.10,2013-06-15 07:56:00,
2013-06-15 03:11:00,68.7,63.0,29.98,SE,135,1.0,6.0,81,0.00,,,0.00,weatherlink.com 1.10,2013-06-15 08:11:00,
2013-06-15 03:26:00,68.6,63.0,30.01,South,180,1.0,4.0,81,0.00,,,0.00,weatherlink.com 1.10,2013-06-15 08:26:00,
2013-06-15 03:41:00,68.5,63.0,30.05,West,276,6.0,7.0,82,0.00,,,0.00,weatherlink.com 1.10,2013-06-15 08:41:00,
2013-06-15 03:56:00,68.2,63.0,30.05,SW,219,3.0,6.0,82,0.01,,,0.01,weatherlink.com 1.10,2013-06-15 08:56:00,
2013-06-15 04:11:00,67.9,62.0,30.05,WSW,245,3.0,6.0,82,0.01,,,0.01,weatherlink.com 1.10,2013-06-15 09:11:00,
2013-06-15 04:26:00,67.2,63.0,30.07,WSW,247,6.0,9.0,86,0.04,,,0.04,weatherlink.com 1.10,2013-06-15 09:26:00,
2013-06-15 04:42:00,65.9,63.0,30.05,West,279,2.0,6.0,90,0.08,,,0.08,weatherlink.com 1.10,2013-06-15 09:42:00,
2013-06-15 04:57:00,65.4,63.0,30.03,SSE,163,2.0,4.0,92,0.11,,,0.12,weatherlink.com 1.10,2013-06-15 09:57:00,
2013-06-15 05:12:00,65.0,63.0,30.01,SSE,165,2.0,4.0,94,0.13,,,0.14,weatherlink.com 1.10,2013-06-15 10:12:00,
2013-06-15 05:27:00,64.9,64.0,29.99,SSE,155,3.0,7.0,95,0.12,,,0.16,weatherlink.com 1.10,2013-06-15 10:27:00,
2013-06-15 05:42:00,64.9,64.0,29.93,SE,126,9.0,11.0,95,0.09,,,0.00,weatherlink.com 1.10,2013-06-15 10:42:00,
2013-06-15 05:57:00,65.0,64.0,29.83,South,184,7.0,21.0,95,0.05,,,0.00,weatherlink.com 1.10,2013-06-15 10:57:00,
2013-06-15 06:12:00,65.6,64.0,29.90,NW,319,3.0,8.0,95,0.03,,,0.00,weatherlink.com 1.10,2013-06-15 11:12:00,
2013-06-15 06:27:00,66.1,64.0,29.92,SSW,192,2.0,7.0,94,0.01,,,0.00,weatherlink.com 1.10,2013-06-15 11:27:00,
2013-06-15 06:42:00,66.3,65.0,29.92,SSW,194,1.0,2.0,94,0.00,,,0.00,weatherlink.com 1.10,2013-06-15 11:42:00,
2013-06-15 06:57:00,66.5,65.0,29.92,SSE,158,2.0,3.0,94,0.00,,,0.00,weatherlink.com 1.10,2013-06-15 11:57:00,
2013-06-15 07:12:00,67.2,65.0,29.93,SSE,168,1.0,6.0,93,0.00,,,0.00,weatherlink.com 1.10,2013-06-15 12:12:00,
2013-06-15 07:27:00,67.7,65.0,29.95,SW,223,1.0,6.0,92,0.00,,,0.00,weatherlink.com 1.10,2013-06-15 12:27:00,
2013-06-15 07:42:00,68.0,65.0,29.96,SW,218,0.0,5.0,91,0.00,,,0.00,weatherlink.com 1.10,2013-06-15 12:42:00,
2013-06-15 07:57:00,67.6,65.0,29.95,South,174,4.0,5.0,92,0.00,,,0.00,weatherlink.com 1.10,2013-06-15 12:57:00,
2013-06-15 08:12:00,67.3,65.0,29.96,South,175,3.0,4.0,93,0.01,,,0.01,weatherlink.com 1.10,2013-06-15 13:12:00,
2013-06-15 08:27:00,67.1,65.0,29.97,WNW,302,0.0,8.0,93,0.01,,,0.01,weatherlink.com 1.10,2013-06-15 13:27:00,
2013-06-15 08:42:00,67.7,66.0,29.96,South,172,4.0,4.0,94,0.01,,,0.01,weatherlink.com 1.10,2013-06-15 13:42:00,
2013-06-15 08:57:00,68.8,66.0,29.96,South,188,6.0,11.0,91,0.01,,,0.01,weatherlink.com 1.10,2013-06-15 13:57:00,
2013-06-15 09:12:00,69.2,66.0,29.96,SE,144,5.0,9.0,89,0.00,,,0.01,weatherlink.com 1.10,2013-06-15 14:12:00,
2013-06-15 09:27:00,69.5,66.0,29.98,South,177,4.0,8.0,88,0.00,,,0.01,weatherlink.com 1.10,2013-06-15 14:27:00,
2013-06-15 09:42:00,67.7,65.0,30.00,SSW,196,6.0,13.0,91,0.14,,,0.15,weatherlink.com 1.10,2013-06-15 14:42:00,
2013-06-15 09:57:00,66.3,64.0,29.98,South,174,7.0,13.0,92,0.21,,,0.22,weatherlink.com 1.10,2013-06-15 14:57:00,
2013-06-15 10:12:00,66.1,64.0,29.99,SW,235,3.0,8.0,93,0.22,,,0.23,weatherlink.com 1.10,2013-06-15 15:12:00,
2013-06-15 10:27:00,66.0,64.0,29.97,SSE,161,6.0,8.0,94,0.23,,,0.24,weatherlink.com 1.10,2013-06-15 15:27:00,
2013-06-15 10:42:00,66.0,64.0,29.96,SSE,155,2.0,6.0,94,0.11,,,0.27,weatherlink.com 1.10,2013-06-15 15:42:00,
2013-06-15 10:57:00,66.4,65.0,29.98,SSE,154,0.0,5.0,95,0.05,,,0.27,weatherlink.com 1.10,2013-06-15 15:57:00,
2013-06-15 11:12:00,66.5,65.0,29.99,SW,223,5.0,6.0,95,0.05,,,0.28,weatherlink.com 1.10,2013-06-15 16:12:00,
2013-06-15 11:27:00,66.2,65.0,29.99,North,355,0.0,4.0,95,0.11,,,0.35,weatherlink.com 1.10,2013-06-15 16:27:00,
2013-06-15 11:42:00,66.4,65.0,29.99,North,355,2.0,2.0,96,0.08,,,0.35,weatherlink.com 1.10,2013-06-15 16:42:00,
2013-06-15 11:57:00,66.8,66.0,30.00,South,178,0.0,4.0,96,0.08,,,0.35,weatherlink.com 1.10,2013-06-15 16:57:00,
2013-06-15 12:12:00,66.7,66.0,30.00,WSW,242,0.0,3.0,96,0.12,,,0.41,weatherlink.com 1.10,2013-06-15 17:12:00,
2013-06-15 12:27:00,66.6,66.0,29.99,South,177,2.0,3.0,96,0.12,,,0.47,weatherlink.com 1.10,2013-06-15 17:27:00,
2013-06-15 12:42:00,66.3,65.0,30.00,East,80,1.0,6.0,96,0.47,,,0.82,weatherlink.com 1.10,2013-06-15 17:42:00,
2013-06-15 12:57:00,66.1,65.0,29.98,South,175,11.0,21.0,96,0.82,,,1.17,weatherlink.com 1.10,2013-06-15 17:57:00,
2013-06-15 13:12:00,66.2,65.0,29.97,SE,143,10.0,15.0,96,0.82,,,1.23,weatherlink.com 1.10,2013-06-15 18:12:00,
2013-06-15 13:27:00,66.5,65.0,29.95,SE,138,4.0,16.0,96,0.82,,,1.29,weatherlink.com 1.10,2013-06-15 18:27:00,
2013-06-15 13:42:00,67.4,67.0,29.95,South,171,6.0,12.0,97,0.48,,,1.30,weatherlink.com 1.10,2013-06-15 18:42:00,
2013-06-15 13:57:00,69.7,68.0,29.96,SE,137,10.0,13.0,93,0.13,,,1.30,weatherlink.com 1.10,2013-06-15 18:57:00,
2013-06-15 14:12:00,71.8,68.0,29.96,SE,140,3.0,11.0,88,0.07,,,1.30,weatherlink.com 1.10,2013-06-15 19:12:00,
2013-06-15 14:27:00,74.5,69.0,29.95,South,172,9.0,11.0,82,0.01,,,1.30,weatherlink.com 1.10,2013-06-15 19:27:00,
2013-06-15 14:43:00,77.1,69.0,29.96,SE,143,3.0,14.0,75,0.00,,,1.30,weatherlink.com 1.10,2013-06-15 19:43:00,
2013-06-15 14:58:00,77.8,69.0,29.96,South,190,7.0,13.0,73,0.00,,,1.30,weatherlink.com 1.10,2013-06-15 19:58:00,
2013-06-15 15:13:00,78.9,69.0,29.96,SE,140,6.0,12.0,71,0.00,,,1.30,weatherlink.com 1.10,2013-06-15 20:13:00,
2013-06-15 15:28:00,79.8,68.0,29.95,SSE,161,5.0,13.0,68,0.00,,,1.30,weatherlink.com 1.10,2013-06-15 20:28:00,
2013-06-15 15:43:00,80.5,69.0,29.95,South,171,8.0,12.0,68,0.00,,,1.30,weatherlink.com 1.10,2013-06-15 20:43:00,
2013-06-15 15:58:00,80.0,68.0,29.94,SE,145,5.0,10.0,67,0.00,,,1.30,weatherlink.com 1.10,2013-06-15 20:58:00,
2013-06-15 16:13:00,80.6,69.0,29.93,SE,131,4.0,7.0,67,0.00,,,1.30,weatherlink.com 1.10,2013-06-15 21:13:00,
2013-06-15 16:28:00,79.8,69.0,29.92,ESE,121,2.0,8.0,70,0.00,,,1.30,weatherlink.com 1.10,2013-06-15 21:28:00,
2013-06-15 16:43:00,81.1,70.0,29.91,SSE,154,5.0,9.0,68,0.00,,,1.30,weatherlink.com 1.10,2013-06-15 21:43:00,
2013-06-15 16:58:00,82.7,69.0,29.90,SE,142,6.0,12.0,63,0.00,,,1.30,weatherlink.com 1.10,2013-06-15 21:58:00,
2013-06-15 17:13:00,81.4,69.0,29.90,East,101,6.0,10.0,66,0.00,,,1.30,weatherlink.com 1.10,2013-06-15 22:13:00,
2013-06-15 17:28:00,80.9,68.0,29.89,ESE,113,4.0,10.0,66,0.00,,,1.30,weatherlink.com 1.10,2013-06-15 22:28:00,
2013-06-15 17:43:00,80.4,69.0,29.88,SE,144,3.0,8.0,69,0.00,,,1.30,weatherlink.com 1.10,2013-06-15 22:43:00,
2013-06-15 17:58:00,80.0,69.0,29.88,SE,130,1.0,5.0,70,0.00,,,1.30,weatherlink.com 1.10,2013-06-15 22:58:00,
2013-06-15 18:13:00,79.3,70.0,29.89,SSE,167,3.0,6.0,72,0.00,,,1.30,weatherlink.com 1.10,2013-06-15 23:13:00,
2013-06-15 18:28:00,78.2,70.0,29.89,SSE,159,2.0,5.0,76,0.00,,,1.30,weatherlink.com 1.10,2013-06-15 23:28:00,
2013-06-15 18:43:00,76.6,70.0,29.89,SSE,161,1.0,4.0,80,0.00,,,1.30,weatherlink.com 1.10,2013-06-15 23:43:00,
2013-06-15 18:58:00,74.7,70.0,29.92,South,173,4.0,5.0,84,0.07,,,1.37,weatherlink.com 1.10,2013-06-15 23:58:00,
2013-06-15 19:13:00,73.1,69.0,29.92,South,179,2.0,4.0,88,0.08,,,1.38,weatherlink.com 1.10,2013-06-16 00:13:00,
2013-06-15 19:28:00,73.3,70.0,29.93,West,263,0.0,4.0,88,0.08,,,1.38,weatherlink.com 1.10,2013-06-16 00:28:00,
2013-06-15 19:43:00,72.4,68.0,29.95,SSW,213,4.0,9.0,87,0.11,,,1.41,weatherlink.com 1.10,2013-06-16 00:43:00,
2013-06-15 19:58:00,69.2,65.0,29.96,WNW,295,2.0,8.0,87,0.18,,,1.55,weatherlink.com 1.10,2013-06-16 00:58:00,
2013-06-15 20:13:00,68.1,64.0,29.97,South,180,4.0,7.0,87,0.25,,,1.63,weatherlink.com 1.10,2013-06-16 01:13:00,
2013-06-15 20:28:00,66.8,64.0,30.01,SSW,200,8.0,16.0,90,0.30,,,1.68,weatherlink.com 1.10,2013-06-16 01:28:00,
2013-06-15 20:43:00,66.8,65.0,30.03,WSW,251,4.0,18.0,93,0.29,,,1.71,weatherlink.com 1.10,2013-06-16 01:43:00,
2013-06-15 20:58:00,66.9,65.0,30.04,SSW,211,11.0,24.0,93,0.23,,,1.79,weatherlink.com 1.10,2013-06-16 01:58:00,
2013-06-15 21:13:00,67.0,65.0,30.06,WSW,257,8.0,17.0,93,0.24,,,1.87,weatherlink.com 1.10,2013-06-16 02:13:00,
2013-06-15 21:28:00,66.6,65.0,30.06,West,277,5.0,9.0,94,0.27,,,1.95,weatherlink.com 1.10,2013-06-16 02:28:00,
2013-06-15 21:43:00,66.4,65.0,30.05,WNW,297,2.0,8.0,95,0.29,,,2.00,weatherlink.com 1.10,2013-06-16 02:43:00,
2013-06-15 21:58:00,66.3,65.0,30.05,NNW,341,2.0,6.0,96,0.24,,,2.04,weatherlink.com 1.10,2013-06-16 02:58:00,
2013-06-15 22:13:00,66.2,65.0,30.05,North,360,2.0,7.0,96,0.19,,,2.06,weatherlink.com 1.10,2013-06-16 03:13:00,
2013-06-15 22:28:00,66.1,65.0,30.04,North,351,4.0,10.0,96,0.12,,,2.07,weatherlink.com 1.10,2013-06-16 03:28:00,
2013-06-15 22:43:00,66.1,65.0,30.03,North,360,4.0,9.0,96,0.09,,,2.09,weatherlink.com 1.10,2013-06-16 03:43:00,
2013-06-15 22:58:00,66.3,65.0,30.03,NNW,339,4.0,10.0,96,0.05,,,2.09,weatherlink.com 1.10,2013-06-16 03:58:00,
2013-06-15 23:13:00,66.3,65.0,30.01,North,360,5.0,5.0,96,0.03,,,2.09,weatherlink.com 1.10,2013-06-16 04:13:00,
2013-06-15 23:28:00,66.3,65.0,29.99,North,355,1.0,5.0,96,0.03,,,2.10,weatherlink.com 1.10,2013-06-16 04:28:00,
2013-06-15 23:43:00,66.0,65.0,29.97,North,355,0.0,1.0,96,0.02,,,2.11,weatherlink.com 1.10,2013-06-16 04:43:00,
2013-06-15 23:58:00,65.8,65.0,29.97,North,355,0.0,2.0,96,0.02,,,2.11,weatherlink.com 1.10,2013-06-16 04:58:00,